SL-16 DEB, 18550

Orbit data source: Space-Track

SL-16 DEB, 18550 is space debris in LEO originally from a launch on Wed, 18 Mar 1987 UTC launched from the Tyuratam Missile And Space Complex (TTMTR). Debris objects in space refer to the collection of defunct objects orbiting the Earth. Examples of debris include non-operational satellites, rocket bodies, and fragments generated from explosions, collisions, or faulty payload assembly.

Loading next visibility...
Identifier
18550, 1987-027F
Orbit
LEO
Country
Flag of CISCIS
Related business
Manufacturer
Yuzhnoe
Mission
Spacecraft
Bus & Motor
SEP MOTOR COVER, Unknown motor
Mass
~0 kg wet, ~1 kg dry
Launch date (UTC)
1987-03-18 (39 years ago)
Launch vehicle
Unknown
Launch site
Tyuratam Missile And Space Complex (TTMTR)
Object type
Payload
Rocket body
Debris
Shape & HBR
Unknown
Radar Cross Section
Small (<0.1 m²)

Expand to show TLE details & history
Last TLE update: 10 hours ago

TLE from 10 hours ago
0 SL-16 DEB
1 18550U 87027F   25258.55817730  .00000117  00000-0  13806-3 0  9991
2 18550  71.0274 350.9200 0179370 113.1083 248.9038 13.79188721936116
Epoch: 2025-09-15T13:23Z
TLE epoch observation values (Epoch: 2025-09-15T13:23:46.518Z)
Latitude
-0.00004°
Longitude
155.21505°
Altitude
1,018.593 km
Speed
7.318 km/s
True Right ascension
23h 23m 40s
True Declination
0° 00' 00"
Sunlit
Object was in full shadow at epoch
Visualization orbit readout
Latitude
Unknown
Longitude
Unknown
Altitude
Unknown
Speed
Unknown
Apparent Right ascension
Unknown
Apparent Declination
Unknown
Sunlit
N/A
Visualization observer readout
Local Sidereal Time
16:15:11
Azimuth
Unknown
Elevation
Unknown
Doppler factor
Unknown
Orbital elements
Apogee altitude
1,096.431 km
Perigee altitude
833.013 km
Semi-major axis
7,342.859 km
Eccentricity
0.01794
Inclination
71.0274°
RAAN
350.92°
Arg. of periapsis
113.1083°
True anomaly
247.00184°
Mean anomaly
248.9038°
Eccentric anomaly
247.95125°
Mean motion
3.44941 °/min
Orbital period
104.37 mins
BSTAR
0.00013806
Loading maneuver chart data...
Computing Atmospheric mass density...
Loading historical data...
Loading historical data...
Loading historical data...
Loading historical data...
Loading historical data...
Loading historical data...
Loading historical data...

Documentation

Showing up to 5 results
|